This demonstration page uses our WeatherBlox Daily Observations layout. Learn more.

Left ArrowRight Arrow

Hourly Observations for February 7, 2016

Temp ( °F °C ) Dew Point ( °F °C ) Humidity (%) Winds ( mph kmh ) Pressure ( in mb ) Visibility ( mi km ) Precip ( " mm )
12:15 am 00:15 Clear 36 2 -13 -25 11 11 WNW 13 20 30.06 1018 10 16 0.00 0.00
12:35 am 00:35 Clear 34 1 -15 -26 11 11 WNW 12 19 30.09 1019 10 16 0.00 0.00
12:55 am 00:55 Clear 34 1 -15 -26 11 11 WNW 14 22 30.12 1020 10 16 0.00 0.00
1:15 am 01:15 Clear 34 1 -15 -26 11 11 WNW 12 19 30.12 1020 10 16 0.00 0.00
1:35 am 01:35 Clear 36 2 -15 -26 10 10 NW 16 26 30.09 1019 10 16 0.00 0.00
1:55 am 01:55 Clear 36 2 -13 -25 11 11 NW 15 24 30.09 1019 10 16 0.00 0.00
2:15 am 02:15 Clear 36 2 -13 -25 11 11 NW 13 20 30.09 1019 10 16 0.00 0.00
2:35 am 02:35 Clear 36 2 -13 -25 11 11 WNW 16 26 30.09 1019 10 16 0.00 0.00
2:55 am 02:55 Clear 36 2 -13 -25 11 11 NW 16 26 30.09 1019 10 16 0.00 0.00
3:15 am 03:15 Clear 36 2 -13 -25 11 11 NW 13 20 30.09 1019 10 16 0.00 0.00
3:35 am 03:35 Clear 34 1 -15 -26 11 11 WNW 14 22 30.12 1020 10 16 0.00 0.00
3:55 am 03:55 Clear 34 1 -15 -26 11 11 WNW 15 24 30.12 1020 10 16 0.00 0.00
4:15 am 04:15 Clear 34 1 -15 -26 11 11 WNW 15 24 30.12 1020 10 16 0.00 0.00
4:35 am 04:35 Clear 34 1 -15 -26 11 11 WNW 14 22 30.12 1020 10 16 0.00 0.00
4:55 am 04:55 Clear 36 2 -15 -26 10 10 NW 12 19 30.09 1019 10 16 0.00 0.00
5:15 am 05:15 Clear 36 2 -15 -26 10 10 NW 13 20 30.09 1019 10 16 0.00 0.00
5:35 am 05:35 Clear 37 3 -11 -24 12 12 NNW 20 31 30.09 1019 10 16 0.00 0.00
5:55 am 05:55 Clear 37 3 -11 -24 12 12 NNW 21 33 30.09 1019 10 16 0.00 0.00
6:15 am 06:15 Clear 37 3 -11 -24 12 12 NNW 18 30 30.12 1020 10 16 0.00 0.00
6:35 am 06:35 Clear 36 2 -13 -25 11 11 NW 13 20 30.18 1022 10 16 0.00 0.00
6:55 am 06:55 Clear 36 2 N/A N/A NW 14 22 30.18 1022 10 16 0.00 0.00
7:15 am 07:15 Mostly Clear 36 2 -15 -26 10 10 NW 15 24 30.18 1022 10 16 0.00 0.00
7:35 am 07:35 Mostly Cloudy 36 2 -15 -26 10 10 NW 10 17 30.18 1022 10 16 0.00 0.00
7:55 am 07:55 Cloudy 36 2 -15 -26 10 10 NNW 13 20 30.18 1022 10 16 0.00 0.00
8:15 am 08:15 Mostly Cloudy 36 2 -13 -25 11 11 NW 13 20 30.18 1022 10 16 0.00 0.00
8:35 am 08:35 Cloudy 37 3 -11 -24 12 12 NW 13 20 30.18 1022 10 16 0.00 0.00
8:55 am 08:55 Cloudy 37 3 -11 -24 12 12 NW 14 22 30.18 1022 10 16 0.00 0.00
9:15 am 09:15 Mostly Cloudy 37 3 -11 -24 12 12 NW 17 28 30.18 1022 10 16 0.00 0.00
9:35 am 09:35 Mostly Sunny 39 4 -11 -24 11 11 WNW 21 33 30.21 1023 10 16 0.00 0.00
9:55 am 09:55 Mostly Cloudy 39 4 -9 -23 12 12 WNW 17 28 30.21 1023 10 16 0.00 0.00
10:15 am 10:15 Mostly Cloudy 41 5 -9 -23 11 11 WNW 16 26 30.21 1023 10 16 0.00 0.00
10:35 am 10:35 Mostly Cloudy 41 5 -9 -23 11 11 WNW 17 28 30.21 1023 10 16 0.00 0.00
10:55 am 10:55 Sunny 39 4 -9 -23 12 12 WNW 22 35 30.21 1023 10 16 0.00 0.00
11:15 am 11:15 Sunny 41 5 -9 -23 11 11 WNW 23 37 30.21 1023 10 16 0.00 0.00
11:35 am 11:35 Sunny 43 6 -9 -23 10 10 WNW 20 31 30.21 1023 10 16 0.00 0.00
11:55 am 11:55 Sunny 43 6 -9 -23 10 10 WNW 17 28 30.21 1023 10 16 0.00 0.00
12:15 pm 12:15 Sunny 43 6 -8 -22 11 11 WNW 21 33 30.15 1021 10 16 0.00 0.00
12:35 pm 12:35 Sunny 43 6 -8 -22 11 11 WNW 21 33 30.15 1021 10 16 0.00 0.00
12:55 pm 12:55 Mostly Sunny 45 7 -8 -22 11 11 WNW 21 33 30.15 1021 10 16 0.00 0.00
1:15 pm 13:15 Mostly Cloudy 45 7 -8 -22 11 11 WNW 30 48 30.12 1020 10 16 0.00 0.00
1:35 pm 13:35 Partly Cloudy 43 6 -8 -22 11 11 WNW 22 35 30.12 1020 10 16 0.00 0.00
1:55 pm 13:55 Mostly Sunny 43 6 -8 -22 11 11 WNW 24 39 30.12 1020 10 16 0.00 0.00
2:15 pm 14:15 Partly Cloudy 43 6 -8 -22 11 11 WNW 20 31 30.12 1020 10 16 0.00 0.00
2:35 pm 14:35 Mostly Cloudy 43 6 -8 -22 11 11 WNW 26 43 30.09 1019 10 16 0.00 0.00
2:55 pm 14:55 Mostly Cloudy 43 6 -9 -23 10 10 NW 26 43 30.12 1020 10 16 0.00 0.00
3:15 pm 15:15 Mostly Cloudy 43 6 -9 -23 10 10 NW 23 37 30.12 1020 10 16 0.00 0.00
3:35 pm 15:35 Mostly Cloudy 41 5 -9 -23 11 11 NW 29 46 30.15 1021 10 16 0.00 0.00
3:55 pm 15:55 Cloudy 41 5 -9 -23 11 11 NNW 24 39 30.15 1021 10 16 0.00 0.00
4:15 pm 16:15 Mostly Cloudy 41 5 -9 -23 11 11 NW 20 31 30.15 1021 10 16 0.00 0.00
4:35 pm 16:35 Cloudy 41 5 -9 -23 11 11 NW 20 31 30.15 1021 10 16 0.00 0.00
4:55 pm 16:55 Mostly Cloudy 41 5 -9 -23 11 11 NW 17 28 30.15 1021 10 16 0.00 0.00
5:15 pm 17:15 Partly Cloudy 39 4 -9 -23 12 12 NW 22 35 30.15 1021 10 16 0.00 0.00
5:35 pm 17:35 Sunny 37 3 -11 -24 12 12 NW 18 30 30.15 1021 10 16 0.00 0.00
5:55 pm 17:55 Sunny 37 3 -11 -24 12 12 NW 22 35 30.15 1021 10 16 0.00 0.00
6:15 pm 18:15 Clear 36 2 -13 -25 11 11 NNW 25 41 30.21 1023 10 16 0.00 0.00
6:35 pm 18:35 Clear 36 2 -13 -25 11 11 NW 22 35 30.21 1023 10 16 0.00 0.00
6:55 pm 18:55 Clear 36 2 -13 -25 11 11 NW 20 31 30.21 1023 10 16 0.00 0.00
7:15 pm 19:15 Clear 36 2 -15 -26 10 10 NW 30 48 30.21 1023 10 16 0.00 0.00
7:35 pm 19:35 Clear 36 2 -13 -25 11 11 NW 25 41 30.21 1023 10 16 0.00 0.00
7:55 pm 19:55 Clear 36 2 -15 -26 10 10 NNW 21 33 30.21 1023 10 16 0.00 0.00
8:15 pm 20:15 Clear 34 1 -15 -26 11 11 NNW 18 30 30.21 1023 10 16 0.00 0.00
8:35 pm 20:35 Clear 34 1 -15 -26 11 11 NNW 20 31 30.24 1024 10 16 0.00 0.00
8:55 pm 20:55 Clear 34 1 -15 -26 11 11 NNW 22 35 30.24 1024 10 16 0.00 0.00
9:15 pm 21:15 Clear 34 1 -15 -26 11 11 NW 21 33 30.24 1024 10 16 0.00 0.00
9:35 pm 21:35 Clear 32 0 -17 -27 11 11 NNW 23 37 30.24 1024 10 16 0.00 0.00
9:55 pm 21:55 Clear 32 0 -17 -27 11 11 NW 18 30 30.24 1024 10 16 0.00 0.00
10:15 pm 22:15 Clear 32 0 -17 -27 11 11 NW 20 31 30.24 1024 10 16 0.00 0.00
10:35 pm 22:35 Clear 30 -1 -17 -27 12 12 NW 17 28 30.27 1025 10 16 0.00 0.00
10:55 pm 22:55 Clear 30 -1 -17 -27 12 12 NW 17 28 30.30 1026 10 16 0.00 0.00
11:15 pm 23:15 Mostly Clear 30 -1 -17 -27 12 12 NW 14 22 30.30 1026 10 16 0.00 0.00
11:35 pm 23:35 Mostly Clear 28 -2 -18 -28 12 12 WNW 14 22 30.30 1026 10 16 0.00 0.00
11:55 pm 23:55 Mostly Cloudy 28 -2 -18 -28 12 12 NW 13 20 30.30 1026 10 16 0.00 0.00

Powered by AerisWeather